FW1847 Weather Reports


Display with metric or nautical units.
time (UTC)temp
F
wind
direction
speed
MPH
gust
MPH
rain 1hr
in
rain 24hr
in
rain mn
in
humidity
%
barometer
mb
20260507050613 44 341 2.0 5.0 0.00 0.23 0.00 92 1013.1
20260507050115 44 339 2.0 7.0 0.00 0.23 0.00 92 1013.0
20260507045613 44 338 2.0 7.0 0.00 0.23 0.00 92 1012.9
20260507045114 43 358 2.0 6.0 0.00 0.23 0.00 92 1012.8
20260507044614 43 351 2.0 6.0 0.00 0.23 0.00 92 1012.8
20260507044114 43 1 2.0 4.0 0.00 0.23 0.00 92 1012.7
20260507043613 43 357 2.0 4.0 0.00 0.23 0.00 92 1012.7
20260507042612 42 359 1.0 3.0 0.00 0.23 0.00 93 1012.7
20260507042114 42 359 0.0 2.0 0.00 0.23 0.00 93 1012.6
20260507041612 42 359 0.0 1.0 0.00 0.23 0.00 92 1012.6
20260507041114 42 359 0.0 1.0 0.00 0.23 0.00 93 1012.5
20260507040613 41 358 0.0 1.0 0.00 0.23 0.00 93 1012.5
20260507040116 41 358 0.0 2.0 0.00 0.23 0.00 92 1012.5
20260507035614 41 358 0.0 2.0 0.00 0.23 0.00 92 1012.5
20260507034611 41 358 0.0 1.0 0.00 0.23 0.00 92 1012.3
20260507034109 41 358 0.0 1.0 0.00 0.23 0.00 92 1012.3
20260507033610 41 358 0.0 2.0 0.00 0.23 0.00 92 1012.3
20260507033108 40 358 0.0 2.0 0.00 0.23 0.00 92 1012.3
20260507032614 40 358 0.0 1.0 0.00 0.23 0.00 92 1012.3
20260507032108 40 358 0.0 2.0 0.00 0.23 0.00 92 1012.2
20260507031605 40 358 0.0 2.0 0.00 0.23 0.00 91 1012.1
20260507031106 40 358 1.0 2.0 0.00 0.23 0.00 91 1012.0
20260507030604 40 359 0.0 2.0 0.00 0.23 0.00 91 1012.0
20260507030112 40 358 0.0 2.0 0.00 0.23 0.00 91 1012.0
20260507025559 41 358 0.0 2.0 0.00 0.23 0.00 90 1011.9
20260507025051 41 358 0.0 2.0 0.00 0.23 0.00 90 1011.9
20260507024547 41 358 0.0 2.0 0.00 0.23 0.00 90 1011.9
20260507024041 41 358 0.0 2.0 0.00 0.23 0.00 90 1011.9
20260507023533 41 358 0.0 2.0 0.00 0.23 0.00 90 1011.8
20260507023027 42 358 0.0 1.0 0.00 0.23 0.00 89 1011.9
20260507022520 42 358 0.0 2.0 0.00 0.23 0.00 90 1011.8
20260507022014 42 358 0.0 3.0 0.00 0.23 0.00 90 1011.8
20260507021508 42 359 0.0 3.0 0.00 0.23 0.00 90 1011.7
20260507021002 42 358 1.0 3.0 0.00 0.23 0.00 89 1011.7
20260507020456 42 357 1.0 3.0 0.00 0.23 0.00 90 1011.7
20260507015950 42 357 1.0 3.0 0.00 0.23 0.00 89 1011.7
20260507015444 42 357 1.0 3.0 0.00 0.23 0.00 89 1011.6
20260507014432 43 357 1.0 3.0 0.00 0.23 0.00 89 1011.5
20260507013421 43 357 1.0 3.0 0.00 0.23 0.00 89 1011.5
20260507012914 43 357 0.0 2.0 0.00 0.23 0.00 89 1011.5
20260507012408 43 357 1.0 2.0 0.00 0.23 0.00 89 1011.5
20260507011902 44 357 1.0 2.0 0.00 0.23 0.00 89 1011.5
20260507011357 44 357 1.0 3.0 0.00 0.23 0.00 89 1011.4
20260507010345 44 356 0.0 2.0 0.00 0.23 0.00 89 1011.3
20260507005839 44 356 0.0 2.0 0.00 0.23 0.00 89 1011.3
20260507004834 45 356 0.0 2.0 0.00 0.23 0.00 88 1011.3
20260507004335 45 356 0.0 2.0 0.00 0.23 0.00 88 1011.2
20260507003834 45 356 0.0 2.0 0.00 0.23 0.00 88 1011.2
20260507003335 46 356 1.0 3.0 0.00 0.23 0.00 88 1011.2
20260507002834 46 356 1.0 3.0 0.00 0.23 0.00 88 1011.2
20260507002333 46 354 1.0 3.0 0.00 0.23 0.00 88 1011.1
20260507001831 46 354 1.0 4.0 0.00 0.23 0.00 88 1011.1
20260507000830 47 354 2.0 7.0 0.00 0.23 0.00 88 1011.0
20260507000332 47 355 2.0 7.0 0.00 0.23 0.00 89 1010.9
20260506235833 47 357 2.0 4.0 0.00 0.23 0.00 89 1010.9
20260506235331 47 352 2.0 6.0 0.00 0.23 0.00 89 1011.0
20260506234831 47 345 2.0 6.0 0.00 0.23 0.00 89 1010.9
20260506234329 47 355 2.0 5.0 0.00 0.23 0.00 89 1010.9
20260506233826 47 348 2.0 5.0 0.00 0.23 0.00 89 1010.8
20260506233328 47 330 2.0 6.0 0.00 0.23 0.00 89 1010.8
20260506232828 48 340 2.0 7.0 0.00 0.23 0.00 89 1010.8
20260506232325 48 338 2.0 7.0 0.00 0.23 0.00 89 1010.9
20260506231826 48 341 1.0 4.0 0.00 0.23 0.00 89 1010.9
20260506231332 48 341 1.0 4.0 0.00 0.23 0.00 89 1010.8
20260506230825 48 327 1.0 4.0 0.00 0.23 0.00 89 1010.8
20260506230325 48 325 2.0 6.0 0.00 0.23 0.00 89 1010.8
20260506225825 48 325 2.0 6.0 0.00 0.23 0.00 89 1010.7
20260506225326 48 333 2.0 4.0 0.00 0.23 0.00 89 1010.8
20260506224822 48 316 2.0 5.0 0.00 0.23 0.00 89 1010.7
20260506224320 48 311 2.0 5.0 0.00 0.23 0.00 89 1010.8
20260506223821 48 320 2.0 5.0 0.00 0.23 0.00 89 1010.8
20260506223321 49 320 1.0 4.0 0.00 0.23 0.00 89 1010.8
20260506222820 49 314 1.0 4.0 0.00 0.23 0.00 89 1010.7
20260506222319 49 315 2.0 4.0 0.00 0.23 0.00 89 1010.7
20260506221320 49 311 2.0 4.0 0.00 0.23 0.00 89 1010.7
20260506220820 49 305 2.0 5.0 0.00 0.23 0.00 89 1010.7
20260506220320 49 323 2.0 5.0 0.00 0.23 0.00 89 1010.8
20260506215821 49 323 2.0 4.0 0.00 0.23 0.23 89 1010.8
20260506215321 49 314 1.0 4.0 0.00 0.23 0.23 89 1010.7
20260506214321 49 326 1.0 3.0 0.00 0.23 0.23 89 1010.6
20260506213821 49 327 1.0 4.0 0.00 0.23 0.23 89 1010.6
20260506213318 49 326 1.0 4.0 0.00 0.23 0.23 89 1010.5
20260506212318 49 333 2.0 5.0 0.00 0.23 0.23 89 1010.4
20260506211817 49 311 1.0 4.0 0.00 0.23 0.23 89 1010.4
20260506210817 49 346 1.0 3.0 0.00 0.23 0.23 89 1010.3
20260506205817 49 347 0.0 2.0 0.00 0.23 0.23 89 1010.3
20260506205316 49 347 0.0 2.0 0.00 0.23 0.23 89 1010.3
20260506204813 49 347 0.0 0.0 0.00 0.23 0.23 89 1010.3
20260506204313 49 347 0.0 1.0 0.00 0.23 0.23 89 1010.2
20260506203814 48 347 0.0 1.0 0.00 0.23 0.23 88 1010.2
20260506203316 48 347 0.0 2.0 0.00 0.23 0.23 87 1010.2
20260506202812 48 347 1.0 2.0 0.00 0.23 0.23 87 1010.2
20260506202311 49 347 1.0 2.0 0.00 0.23 0.23 87 1010.2
20260506201810 49 347 0.0 2.0 0.00 0.23 0.23 87 1010.2
20260506200810 49 347 1.0 2.0 0.00 0.23 0.23 87 1010.2
20260506200311 49 347 1.0 2.0 0.00 0.23 0.23 87 1010.2
20260506195811 49 347 1.0 2.0 0.00 0.23 0.23 87 1010.2
20260506195311 49 347 1.0 2.0 0.00 0.23 0.23 87 1010.2
20260506194810 49 347 1.0 2.0 0.00 0.23 0.23 87 1010.2
20260506193811 49 347 0.0 1.0 0.00 0.23 0.23 86 1010.2
20260506193310 49 347 0.0 1.0 0.00 0.23 0.23 86 1010.2
20260506192812 49 347 0.0 1.0 0.00 0.23 0.23 86 1010.1
20260506192309 49 347 0.0 1.0 0.00 0.23 0.23 86 1010.0
20260506191808 49 347 0.0 1.0 0.00 0.23 0.23 86 1010.0
20260506191309 49 347 0.0 1.0 0.00 0.23 0.23 86 1009.9
20260506190806 49 347 0.0 1.0 0.00 0.23 0.23 86 1009.9
20260506184800 49 347 1.0 3.0 0.01 0.23 0.23 86 1009.7
20260506184301 49 347 1.0 3.0 0.01 0.23 0.23 86 1009.6
20260506183759 49 347 0.0 2.0 0.01 0.23 0.23 86 1009.6
20260506183259 49 347 1.0 2.0 0.01 0.23 0.23 86 1009.5
20260506182753 49 347 1.0 2.0 0.01 0.23 0.23 86 1009.5
20260506181741 49 347 1.0 2.0 0.01 0.23 0.23 86 1009.5
20260506181235 49 347 1.0 3.0 0.01 0.23 0.23 86 1009.5
20260506180730 49 347 1.0 3.0 0.01 0.23 0.23 86 1009.5
20260506180223 49 347 1.0 4.0 0.02 0.23 0.23 86 1009.4
20260506175717 49 347 2.0 4.0 0.02 0.23 0.23 85 1009.3
20260506174200 49 11 1.0 6.0 0.01 0.22 0.22 86 1009.3
20260506173653 49 13 2.0 6.0 0.01 0.22 0.22 85 1009.2
20260506173147 49 336 2.0 5.0 0.01 0.22 0.22 85 1009.2
20260506172642 49 17 2.0 5.0 0.01 0.22 0.22 85 1009.2
20260506172135 49 58 2.0 7.0 0.02 0.22 0.22 85 1009.1
20260506171124 49 61 1.0 5.0 0.02 0.22 0.22 86 1009.0
20260506170617 49 57 1.0 3.0 0.01 0.21 0.22 86 1009.0
20260506170112 49 57 1.0 3.0 0.02 0.21 0.21 86 1009.0
20260506165059 49 51 1.0 5.0 0.02 0.21 0.21 86 1009.0
20260506164558 49 43 0.0 2.0 0.02 0.21 0.21 86 1009.1
20260506164044 49 43 1.0 3.0 0.02 0.21 0.21 86 1009.0
20260506163537 49 40 1.0 3.0 0.02 0.21 0.21 86 1009.0
20260506163031 49 37 1.0 3.0 0.02 0.21 0.21 86 1009.0
20260506162020 49 37 2.0 4.0 0.02 0.20 0.20 86 1009.0
20260506161008 49 37 1.0 3.0 0.03 0.20 0.20 86 1009.0
20260506160501 49 38 1.0 4.0 0.03 0.20 0.20 86 1009.0
20260506155956 49 38 2.0 4.0 0.03 0.20 0.20 85 1009.1
20260506155450 49 24 2.0 6.0 0.03 0.20 0.20 85 1009.1
20260506154948 49 22 3.0 6.0 0.03 0.20 0.20 84 1009.1
20260506152945 49 10 2.0 6.0 0.03 0.18 0.19 84 1009.1
20260506152445 49 16 2.0 6.0 0.03 0.18 0.18 84 1009.1
20260506151945 49 16 3.0 7.0 0.03 0.18 0.18 84 1009.1
20260506151446 49 34 2.0 7.0 0.03 0.17 0.17 84 1009.1
20260506150946 49 25 3.0 7.0 0.04 0.17 0.17 83 1009.2
20260506150445 49 352 4.0 7.0 0.04 0.17 0.17 83 1009.1
20260506145945 49 26 4.0 8.0 0.04 0.17 0.17 83 1009.1
20260506145446 49 6 3.0 8.0 0.04 0.17 0.17 83 1009.0
20260506144946 49 37 3.0 8.0 0.05 0.17 0.17 83 1009.1
20260506144446 48 42 4.0 10.0 0.05 0.16 0.16 82 1009.1
20260506143445 48 23 4.0 9.0 0.06 0.16 0.16 82 1009.0
20260506142945 48 10 4.0 9.0 0.05 0.15 0.15 83 1009.0
20260506142446 48 23 4.0 8.0 0.06 0.15 0.15 83 1009.0
20260506141946 48 41 3.0 8.0 0.06 0.15 0.15 83 1009.0
20260506141447 48 15 4.0 8.0 0.06 0.14 0.14 83 1008.9
20260506140944 48 14 4.0 8.0 0.05 0.13 0.13 83 1009.0
20260506135945 48 24 3.0 8.0 0.05 0.13 0.13 83 1009.0
20260506135448 48 11 3.0 8.0 0.05 0.13 0.13 83 1009.0
20260506134942 48 19 2.0 8.0 0.04 0.12 0.12 83 1009.0
20260506134441 48 5 2.0 7.0 0.04 0.11 0.12 83 1009.0
20260506133940 48 33 3.0 7.0 0.04 0.11 0.11 82 1009.0
20260506133442 48 32 4.0 8.0 0.04 0.10 0.10 82 1009.1
20260506132943 48 21 5.0 10.0 0.04 0.10 0.10 82 1009.1
20260506131940 48 13 4.0 10.0 0.05 0.09 0.09 81 1009.0
20260506131441 48 50 4.0 11.0 0.04 0.09 0.09 81 1009.0
20260506130944 48 20 5.0 11.0 0.05 0.09 0.09 80 1008.9
20260506130441 48 352 4.0 11.0 0.05 0.09 0.09 80 1008.9
20260506125938 48 23 4.0 11.0 0.05 0.08 0.08 80 1008.9
20260506125439 48 21 5.0 11.0 0.05 0.08 0.08 80 1008.9
20260506124938 48 24 5.0 11.0 0.05 0.08 0.08 80 1008.9
20260506124436 48 33 6.0 12.0 0.05 0.07 0.07 79 1008.8
20260506123435 48 37 6.0 10.0 0.05 0.06 0.07 79 1008.8
20260506122434 48 39 4.0 12.0 0.04 0.06 0.06 80 1008.8
20260506121935 48 13 4.0 8.0 0.03 0.05 0.06 80 1008.8
20260506121435 48 24 4.0 9.0 0.04 0.05 0.05 80 1008.8
20260506115433 48 32 7.0 11.0 0.02 0.03 0.03 77 1008.6
20260506114933 48 66 6.0 13.0 0.03 0.03 0.03 77 1008.6
20260506114428 48 41 6.0 13.0 0.02 0.02 0.02 77 1008.5
20260506113930 48 41 5.0 12.0 0.02 0.02 0.02 77 1008.5
20260506113416 48 33 5.0 11.0 0.02 0.02 0.02 77 1008.6
20260506112910 49 41 5.0 11.0 0.02 0.02 0.02 76 1008.5
20260506112403 49 12 5.0 11.0 0.02 0.02 0.02 77 1008.5
20260506111857 49 40 6.0 12.0 0.02 0.02 0.02 76 1008.5
20260506110847 49 45 5.0 10.0 0.01 0.01 0.01 75 1008.4
20260506105328 49 60 5.0 12.0 0.01 0.01 0.01 73 1008.4
20260506104823 49 39 6.0 12.0 0.00 0.00 0.00 73 1008.4
20260506104316 49 32 7.0 15.0 0.00 0.00 0.00 71 1008.4
20260506103810 49 36 8.0 16.0 0.00 0.00 0.00 71 1008.4
20260506102759 50 53 7.0 14.0 0.00 0.00 0.00 73 1008.4
20260506102252 50 354 9.0 15.0 0.00 0.00 0.00 71 1008.3
20260506101746 50 53 8.0 14.0 0.00 0.00 0.00 70 1008.3
20260506101240 50 28 8.0 16.0 0.00 0.00 0.00 70 1008.2
20260506100734 50 42 7.0 16.0 0.00 0.00 0.00 70 1008.2
20260506100228 50 8 7.0 16.0 0.00 0.00 0.00 69 1008.1
20260506095722 50 10 7.0 16.0 0.00 0.00 0.00 69 1008.1
20260506095217 50 3 8.0 16.0 0.00 0.00 0.00 70 1008.1
20260506094710 51 35 7.0 13.0 0.00 0.00 0.00 69 1008.1
20260506093659 51 29 7.0 14.0 0.00 0.00 0.00 66 1008.0
20260506093153 51 39 7.0 17.0 0.00 0.00 0.00 65 1008.1
20260506092649 51 28 6.0 17.0 0.00 0.00 0.00 64 1008.0
20260506092140 51 25 6.0 13.0 0.00 0.00 0.00 65 1008.0
20260506091635 51 30 6.0 14.0 0.00 0.00 0.00 64 1008.0
20260506091129 51 31 6.0 14.0 0.00 0.00 0.00 64 1008.0
20260506090623 51 10 6.0 12.0 0.00 0.00 0.00 64 1007.9
20260506090125 51 38 6.0 13.0 0.00 0.00 0.00 65 1008.0
20260506085610 50 44 6.0 13.0 0.00 0.00 0.00 65 1007.9
20260506085104 50 18 6.0 13.0 0.00 0.00 0.00 65 1008.0
20260506084558 50 9 6.0 13.0 0.00 0.00 0.00 66 1008.0
20260506084052 50 41 6.0 11.0 0.00 0.00 0.00 66 1007.9
20260506083040 50 355 8.0 14.0 0.00 0.00 0.00 65 1007.8
20260506082534 50 26 7.0 14.0 0.00 0.00 0.00 65 1007.8
20260506082029 50 69 7.0 13.0 0.00 0.00 0.00 65 1007.7
20260506081530 51 43 7.0 13.0 0.00 0.00 0.00 65 1007.7
20260506081030 51 53 6.0 14.0 0.00 0.00 0.00 65 1007.5
20260506080530 51 23 6.0 14.0 0.00 0.00 0.00 65 1007.5
20260506073030 50 56 6.0 14.0 0.00 0.00 0.00 70 1007.3
20260506072524 50 31 7.0 15.0 0.00 0.00 0.00 70 1007.3
20260506072023 50 10 7.0 15.0 0.00 0.00 0.00 70 1007.3
20260506071524 49 7 6.0 14.0 0.00 0.00 0.00 71 1007.3
20260506071023 49 18 6.0 14.0 0.00 0.00 0.00 72 1007.3
20260506070523 49 43 6.0 13.0 0.00 0.00 0.00 73 1007.3
20260506062019 49 3 4.0 11.0 0.00 0.00 0.00 77 1007.2
20260506061019 48 33 5.0 10.0 0.00 0.00 0.00 77 1007.2